Flag for Canada Weather past 2 weeks in Guelph, Ontario, Canada

Now
73 °F

Passing clouds.


Feels Like: 74 °F
Forecast: 64 / 77 °F
Wind: 15 mph from Southwest

Location: Waterloo Well

Current Time: Aug 31, 2014 at 2:36:21 AM

Latest Report: Aug 31, 2014 at 2:00 AM


Visibility: 9 mi

Pressure: 29.91 "Hg

Humidity: 78%

Dew point: 66 °F

Location of GuelphLocation

Historic Weather in Guelph — Graph

°F

Guelph temperature yesterday

Maximum temperature yesterday: 84 °F (at 2:00 PM)
Minimum temperature yesterday: 57 °F (at 1:00 AM)
Average temperature yesterday: 71 °F

Past Weeks' High & Low Weather Summary

 TemperatureHumidityPressure
High84 °F (Aug 26, 2:00 PM)100% (Aug 17, 5:00 AM)30.20 "Hg (Aug 17, 5:00 AM)
Low45 °F (Aug 19, 5:03 AM)45% (Aug 25, 3:00 PM)29.82 "Hg (Aug 16, 5:50 PM)
Average64 °F82%30.01 "Hg
* Reported Aug 16 1:00 AM — Aug 31 1:00 AM, Guelph, Weather by CustomWeather, © 2014

Note: Actual official high and low records may vary slightly from our data, if they occured in-between our weather recording intervals... More about our weather records

Advertising

Guelph weather history for previous 24 hours

 ConditionsComfort  
Time TempWeatherWind HumidityBarometerVisibility
1:00 AM
Aug 31
73 °FPassing clouds.15 mph78%29.90 "Hg9 mi
12:00 AM73 °FClear.15 mph74%29.90 "Hg9 mi
11:00 PM
Aug 30
75 °FClear.15 mph69%29.90 "Hg9 mi
10:00 PM75 °FClear.12 mph69%29.91 "Hg9 mi
9:00 PM77 °FPassing clouds.12 mph65%29.91 "Hg9 mi
8:00 PM77 °FCloudy.16 mph65%29.90 "Hg9 mi
7:00 PM79 °FScattered clouds.14 mph61%29.90 "Hg9 mi
6:00 PM81 °FScattered clouds.17 mph58%29.90 "Hg9 mi
5:00 PM81 °FBroken clouds.15 mph58%29.92 "Hg9 mi
4:00 PM82 °FPassing clouds.18 mph55%29.93 "Hg9 mi
3:00 PM84 °FSunny.20 mph51%29.94 "Hg9 mi
2:00 PM84 °FSunny.16 mph51%29.96 "Hg9 mi
1:00 PM82 °FSunny.13 mph55%29.98 "Hg9 mi
12:00 PM81 °FSunny.14 mph58%29.99 "Hg9 mi
11:00 AM77 °FSunny.10 mph65%30.01 "Hg9 mi
10:00 AM72 °FPassing clouds.13 mph73%30.02 "Hg9 mi
9:00 AM68 °FPassing clouds.8 mph78%30.03 "Hg9 mi
8:00 AM64 °FSunny.7 mph83%30.04 "Hg9 mi
7:00 AM59 °FPassing clouds.5 mph94%30.04 "Hg9 mi
6:00 AM59 °FClear.2 mph94%30.04 "Hg9 mi
5:00 AM61 °FPassing clouds.5 mph88%30.03 "Hg9 mi
4:00 AM59 °FPassing clouds.3 mph94%30.05 "Hg9 mi
3:00 AM59 °FPassing clouds.No wind94%30.07 "Hg9 mi
2:00 AM59 °FOvercast.No wind94%30.08 "Hg9 mi
Weather by CustomWeather, © 2014

See weather overviewHow to use our weather pages